TimePST,TemperatureF,Dew PointF,Humidity,Sea Level PressureIn,VisibilityMPH,Wind Direction,Wind SpeedMPH,Gust SpeedMPH,PrecipitationIn,Events,Conditions,WindDirDegrees,DateUTC
12:52 AM,51.1,37.0,59,30.12,10.0,East,6.9,-,N/A,,Partly Cloudy,100,2013-12-06 08:52:00
1:52 AM,51.1,37.0,59,30.12,10.0,East,6.9,-,N/A,,Scattered Clouds,100,2013-12-06 09:52:00
2:52 AM,53.1,37.9,57,30.12,10.0,ESE,8.1,-,N/A,,Scattered Clouds,120,2013-12-06 10:52:00
3:52 AM,55.0,39.0,55,30.11,10.0,East,8.1,-,N/A,,Mostly Cloudy,100,2013-12-06 11:52:00
4:52 AM,55.9,39.0,53,30.12,10.0,East,5.8,-,N/A,,Mostly Cloudy,80,2013-12-06 12:52:00
5:52 AM,55.9,37.9,51,30.13,10.0,East,6.9,-,N/A,,Mostly Cloudy,90,2013-12-06 13:52:00
6:52 AM,55.0,37.9,53,30.14,10.0,East,6.9,-,N/A,,Overcast,100,2013-12-06 14:52:00
7:52 AM,59.0,37.9,46,30.16,10.0,ESE,10.4,-,N/A,,Mostly Cloudy,120,2013-12-06 15:52:00
8:52 AM,61.0,37.9,42,30.18,10.0,SE,11.5,-,N/A,,Mostly Cloudy,140,2013-12-06 16:52:00
9:52 AM,62.1,37.9,41,30.19,10.0,SE,10.4,-,N/A,,Mostly Cloudy,140,2013-12-06 17:52:00
10:52 AM,62.1,37.9,41,30.19,10.0,South,9.2,-,N/A,,Mostly Cloudy,190,2013-12-06 18:52:00
11:52 AM,64.0,37.0,37,30.16,10.0,SSW,9.2,-,N/A,,Mostly Cloudy,210,2013-12-06 19:52:00
12:52 PM,64.0,35.1,34,30.14,10.0,SSW,11.5,-,N/A,,Scattered Clouds,210,2013-12-06 20:52:00
1:52 PM,64.0,36.0,35,30.12,10.0,SW,9.2,-,N/A,,Scattered Clouds,230,2013-12-06 21:52:00
2:52 PM,60.1,36.0,41,30.12,10.0,SW,6.9,-,N/A,,Scattered Clouds,230,2013-12-06 22:52:00
3:52 PM,60.1,35.1,39,30.13,10.0,SW,5.8,-,N/A,,Scattered Clouds,230,2013-12-06 23:52:00
4:52 PM,59.0,37.9,46,30.13,10.0,SW,9.2,-,N/A,,Scattered Clouds,230,2013-12-07 00:52:00
5:52 PM,57.9,37.9,47,30.13,10.0,SW,8.1,-,N/A,,Scattered Clouds,230,2013-12-07 01:52:00
6:52 PM,57.9,36.0,44,30.14,10.0,WSW,6.9,-,N/A,,Scattered Clouds,240,2013-12-07 02:52:00
7:52 PM,57.0,37.0,47,30.14,10.0,SW,5.8,-,N/A,,Scattered Clouds,220,2013-12-07 03:52:00
8:52 PM,57.9,39.0,49,30.14,10.0,WSW,5.8,-,N/A,,Scattered Clouds,240,2013-12-07 04:52:00
9:52 PM,59.0,39.9,49,30.14,10.0,SW,6.9,-,N/A,,Mostly Cloudy,230,2013-12-07 05:52:00
10:52 PM,59.0,39.9,49,30.14,10.0,WSW,6.9,-,N/A,,Mostly Cloudy,250,2013-12-07 06:52:00
11:52 PM,57.9,39.0,49,30.14,10.0,WSW,9.2,-,N/A,,Mostly Cloudy,250,2013-12-07 07:52:00